Tracking 29892 objects as of 21-Nov-2024
HD Live streaming from Space Station
objects crossing your sky now

FENGYUN 1C DEB

Track FENGYUN 1C DEB now!
10-day predictions


NORAD ID: 32366
Int'l Code: 1999-025CZK
Perigee: 759.1 km
Apogee: 966.5 km
Inclination: 96.8 °
Period: 102.0 minutes
Semi major axis: 7233 km
RCS: 0.0036 m2 (small)
Launch date: May 10, 1999
Source: People's Republic of China (PRC)
Launch site: Taiyaun Space Center, China (TSC)

Note: This is SATELLITE DEBRIS
Your satellite tracking list
Your tracking list is empty




NASA's NSSDC Master Catalog

Two Line Element Set (TLE):
1 32366U 99025CZK 24325.82296506  .00005133  00000-0  26038-2 0  9992
2 32366  96.7572 176.3887 0143379 346.2200  13.5080 14.11080745877406
Source of the keplerian elements: AFSPC